"Pseudo-MPEC" for C0R0KD2

Created 2019 Jun 14 3:07:28 UT using Find_Orb

Click here for an explanation of pseudo-MPECs

 
 Astrometry: 
     C0R0KD2  C2013 02 12b+g$n('4'\$hbRDATO.9yLo+m480()L4pP\y1KZmA^[]jZXy/f8bF51
     C0R0KD2  C2013 02 12laG_P9IXCOFm%]F7.'^)?@f0EcceAstrometryUKX=MqmfAK/pLWF51
     C0R0KD2  C2019 06 06.33795 16 48 58.18 -03 23 38.1    ~6697 20.9 GVNEOCPG96
     C0R0KD2  C2019 06 06.34314 16 48 57.32 -03 23 32.6    ~6697 21.4 GVNEOCPG96
     C0R0KD2  C2019 06 06.34833 16 48 56.49 -03 23 26.8    ~6697 21.0 GVNEOCPG96
     C0R0KD2  C2019 06 06.35352 16 48 55.69 -03 23 20.0    ~6697 20.4 GVNEOCPG96
     C0R0KD2  C2019 06 06.41849 16 48 45.33 -03 22 04.6    ~66Ab 20.3 GVNEOCPI52
     C0R0KD2  C2019 06 06.42057 16 48 45.00 -03 22 02.0    ~66Ab 20.6 GVNEOCPI52
     C0R0KD2  C2019 06 06.42265 16 48 44.67 -03 21 59.7    ~66Ab 20.4 GVNEOCPI52
     C0R0KD2  C2019 06 06.42473 16 48 44.34 -03 21 57.6    ~66Ab 20.9 GVNEOCPI52
     C0R0KD2  C2019 06 07.25757 16 46 34.86 -03 05 46.5    ~676b 20.9 GVNEOCPI52
     C0R0KD2  C2019 06 07.25882 16 46 34.63 -03 05 44.9    ~676b 20.6 GVNEOCPI52
     C0R0KD2  C2019 06 07.26007 16 46 34.45 -03 05 43.3    ~676b 20.9 GVNEOCPI52
     C0R0KD2  C2019 06 07.26132 16 46 34.22 -03 05 42.3    ~676b 21.1 GVNEOCPI52
     C0R0KD2  C2019 06 07P/#Aq*%$yfhyeQQ,hc#oZJ[UPEL1Yw\d\Bredacted;0UharsG:6F51
     C0R0KD2  C2019 06 08.23982 16 43 56.65 -02 46 28.1    ~691b 21.1 GVNEOCPI52
     C0R0KD2  C2019 06 08.24317 16 43 56.08 -02 46 23.8    ~691b 20.3 GVNEOCPI52
     C0R0KD2  C2019 06 08.24652 16 43 55.51 -02 46 20.3    ~691b 21.0 GVNEOCPI52
     C0R0KD2  C2019 06 08.24986 16 43 54.93 -02 46 16.4    ~691b 20.5 GVNEOCPI52
     C0R0KD2 |C2019 06 08%/pODLYCR[E.F%+(Cae=AOscjclickE6k9LpvFYjToib;HGxk/p0807
     C0R0KD2 |C2019 06 08Lk_y.ODDA7Jk9!k:#%*2tMtivBAAQ8,W)EW8uU6pma;,baF?f*Q`807
     C0R0KD2 |C2019 06 08X).HK)Sc50l[A^0wuZD\u*x\Q=H5IherebGOFUwq9*4Nnc6esg:S807
     C0R0KD2 pC2019 06 081v);NeFEh6nP]CvmtG,$[for4Mx=[K*uYoKbdyMeD;!mF86v+1xkL01
     C0R0KD2 KC2019 06 08iYOX3d)q_fd$+c,JbG%UG=Ex#Vvn/Np9,*#j!=,B'e'EqQarV@s;L01
     C0R0KD2 KC2019 06 08rPLnELWsBpZtJ(70$ru+=l\$elt_?6Wpb%;h\h0-Hk[LMr7Qjf\bL01
     C0R0KD2 KC2019 06 09Yrfxd;7]QHS9'H'=kkJ96+@cWW:CPdVH*.fEy$PG1iN4Jl%ppr,8104
     C0R0KD2 KC2019 06 09J3I5GoSWq8@8]?4AMWIa\o@,f9lB+U/[EV*xg!6-9N'/H7sqR/gs104
     C0R0KD2  C2019 06 09.27931 16 41 03.57 -02 25 48.4    ~6977 20.1 GVNEOCPI52
     C0R0KD2  C2019 06 09.28056 16 41 03.37 -02 25 46.9    ~6977 20.2 GVNEOCPI52
     C0R0KD2  C2019 06 09.28181 16 41 03.13 -02 25 45.3    ~6977 20.2 GVNEOCPI52
     C0R0KD2  C2019 06 09.28306 16 41 02.92 -02 25 43.3    ~6977 20.9 GVNEOCPI52
     C0R0KD2 KC2019 06 10;-fbOq$^9)6C\XyLelTFpnmD@E--r#:^eC0C'j]e[Z!93MX\%\RM691
     C0R0KD2 KC2019 06 10OPmN^TGan_Lkoos`,8uA94T@FZK/SE_Ftw!u^IZd;*4hjt?;?Sp9691
     C0R0KD2 KC2019 06 10S*%!K2F0XtbYIF)*ex4SfXMFwi?*9X]CtxyNydasL@CL#'7U;juM691
     C0R0KD2  C2019 06 11.29682 16 35 12.75 -01 45 02.7    ~6B7q 20.6 GVNEOCPI52
     C0R0KD2  C2019 06 11.30076 16 35 11.98 -01 44 58.0    ~6B7q 20.6 GVNEOCPI52
     C0R0KD2  C2019 06 11.30616 16 35 10.99 -01 44 51.1    ~6B7q 21.6 GVNEOCPI52
     C0R0KD2  C2019 06 11.30845 16 35 10.59 -01 44 48.4    ~6B7q 20.4 GVNEOCPI52
     C0R0KD2  C2019 06 11rA$;:bTsEQG*!D)e+7y=)U9uy4KVfJBtCBE^0\9ehoVnIsQO(j%\F51
     C0R0KD2  C2019 06 11Y'-5bt_^H]N\8\!+!C!1kJ^vSggX#F:05V^N:aeA5!_(7:38]h#NF51
     C0R0KD2  C2019 06 118bKF)lX,lLp[(/cwp)_*WgexplanationBLU4/C886=\)cni/A_DF51
     C0R0KD2  C2019 06 12.25442 16 32 19.58 -01 25 26.4    ~6C6b       VNEOCPI52
     C0R0KD2  C2019 06 12.25595 16 32 19.29 -01 25 24.9    ~6C6b 19.8 GVNEOCPI52
     C0R0KD2  C2019 06 12.25748 16 32 18.98 -01 25 22.4    ~6C6b       VNEOCPI52
     C0R0KD2  C2019 06 13.26856 16 29 11.02 -01 04 30.3    ~6D77 20.9 GVNEOCPI52
     C0R0KD2  C2019 06 13.27023 16 29 10.66 -01 04 28.0    ~6D77 20.8 GVNEOCPI52
     C0R0KD2  C2019 06 13.27190 16 29 10.36 -01 04 25.6    ~6D77 21.4 GVNEOCPI52
     C0R0KD2  C2019 06 13.27356 16 29 10.01 -01 04 23.8    ~6D77 20.7 GVNEOCPI52

Station data:
(104) San Marcello Pistoiese  (N44.063037 E10.804200)  Italy. 0.40-m f/5
   reflector.
(691) Steward Observatory, Kitt Peak - Spacewatch  (N31.962174 W111.600327)
   US/Arizona.  Observer J. V. Scotti. 0.9-m f/3 reflector + CCD.
(807) Cerro Tololo Observatory, La Serena  (S30.169136 W70.805900)  Chile.
(F51) Pan-STARRS 1, Haleakala  (N20.707235 W156.255910)  US/Hawaii.
   Observers N. Primak, A. Schultz, S. Watters, J. Thiel, T. Goggia. Measurer
   PS1 Science Consortium. 1.8-m Ritchey-Chrétien + CCD.
(G96) Mt. Lemmon Survey  (N32.442754 W110.788720)  US/Arizona.  Observers T.
   A. Pruyne, B. M. Africano, J. D. Ahern, E. C. Beshore, A. Boattini, E. J.
   Christensen, G. A. Farneth, D. C. Fuls, A. R. Gibbs, A. D. Grauer, H.
   Groeller, R. E. Hill, J. A. Johnson, R. A. Kowalski, S. M. Larson, G. J.
   Leonard, R. H. McNaught, R. L. Seaman, F. C. Shelly. 1.5-m reflector + 4K
   CCD + 10K CCD.
(I52) Steward Observatory, Mt. Lemmon Station  (N32.442547 W110.788920)
   US/Arizona.  Observers T. A. Pruyne, B. M. Africano, J. D. Ahern, E. C.
   Beshore, A. Boattini, E. J. Christensen, G. A. Farneth, D. C. Fuls, A. R.
   Gibbs, A. D. Grauer, H. Groeller, R. E. Hill, J. A. Johnson, R. A.
   Kowalski, S. M. Larson, G. J. Leonard, R. H. McNaught, R. L. Seaman, F. C.
   Shelly. 1.0-m reflector + CCD.
(L01) Višnjan Observatory, Tičan  (N45.290900 E13.749300)  Croatia.
   Observers K. Korlević, E. Pettarin. Measurer E. Pettarin. 1.0-m f/2.9
   reflector + CCD.

Orbital elements:  C0R0KD2
   Perihelion 2019 Sep 11.130378 +/- 0.000611 TT =  3:07:44 (JD 2458737.630378)
Epoch 2019 Jun 13.0 TT = JDT 2458647.5   Earth MOID: 0.1008   Ve: 0.0724
M 320.73818961 +/- 0.00025          (J2000 ecliptic)          AutoNEOCP
n   0.43561129 +/- 3.56e-7          Peri.  203.28128 +/- 0.0023
a   1.72346829 +/- 9.39e-7          Node   172.53149 +/- 0.0016
e   0.6540642 +/- 5.3e-6            Incl.    6.38772 +/- 0.000048
P   2.26/826.41d           H 20.9   G  0.15   U  2.9  
q 0.59620926 +/- 9.45e-6    Q 2.85072731 +/- 7.61e-6
From 48 observations 2013 Feb. 12-2019 June 13; mean residual 0".21
Residuals in arcseconds: 
130212 F51  .12-  .04-    190608 I52  .12+  .37+    190610 691  .22+  .22+    
130212 F51  .12+  .04+    190608 I52  .09+  .10-    190610 691  .01-  .31-    
190606 G96  .02+  .18+    190608 I52  .10-  .16-    190611 I52  .13+  .18+    
190606 G96  .42-  .34-    190608 807  .11+  .05+    190611 I52  .46-  .05+    
190606 G96  .42-  .56-    190608 807  .22+  .09-    190611 I52  .30-  .34+    
190606 G96  .03+  .21+    190608 807  .36+  .26+    190611 I52  .07+  .24+    
190606 I52  .11+  .10+    190608 L01  .05-  .03+    190611 F51  .24+  .03+    
190606 I52  .12+  .27+    190608 L01  .14-  .14-    190611 F51  .22+  .01+    
190606 I52  .13+  .15+    190608 L01  .02+  .04+    190611 F51  .12+  .02+    
190606 I52  .14+  .17-    190609 104  .01-  .31-    190612 I52  .08-  .22-    
190607 I52  .11+  .09-    190609 104  .14-  .25+    190612 I52  .07-  .61-    
190607 I52  .25-  .04+    190609 I52  .12-  .26-    190612 I52  .36-  .00     
190607 I52  .14+  .18+    190609 I52  .16+  .26-    190613 I52  .26+  .28-    
190607 I52  .22-  .28-    190609 I52  .15-  .16-    190613 I52  .25-  .06-    
190607 F51  .05+  .10+    190609 I52  .01-  .34+    190613 I52  .14+  .27+    
190608 I52  .14+  .04+    190610 691  .04-  .26+    190613 I52  .25-  .00     

Ephemerides (geocentric):
Date (UTC) HH   RA              Dec         delta   r     elong  mag " sig PA
---- -- -- --  -------------   -----------  ------ ------ -----  --- ---- ---
2019 06 14 03  16 26 28.048   -00 46 31.32  .44955 1.4310 153.1 20.9 .149  35
2019 06 14 04  16 26 20.033   -00 45 39.21  .44926 1.4306 153.0 20.9 .151  35
2019 06 14 05  16 26 12.009   -00 44 47.07  .44896 1.4302 153.0 20.9 .152  35
2019 06 14 06  16 26 03.978   -00 43 54.93  .44866 1.4298 152.9 20.9 .153  35
2019 06 14 07  16 25 55.938   -00 43 02.77  .44837 1.4294 152.9 20.9 .155  35
2019 06 14 08  16 25 47.890   -00 42 10.60  .44807 1.4290 152.8 20.9 .156  35
2019 06 14 09  16 25 39.834   -00 41 18.42  .44778 1.4285 152.8 20.9 .158  35
2019 06 14 10  16 25 31.771   -00 40 26.22  .44749 1.4281 152.7 20.9 .159  35
2019 06 14 11  16 25 23.699   -00 39 34.01  .44719 1.4277 152.7 20.9 .160  35
2019 06 14 12  16 25 15.619   -00 38 41.78  .44690 1.4273 152.6 20.9 .162  35
2019 06 14 13  16 25 07.531   -00 37 49.55  .44661 1.4269 152.5 20.9 .163  35
2019 06 14 14  16 24 59.434   -00 36 57.30  .44631 1.4265 152.5 20.9 .165  35
2019 06 14 15  16 24 51.330   -00 36 05.03  .44602 1.4261 152.4 20.9 .166  35
2019 06 14 16  16 24 43.218   -00 35 12.76  .44573 1.4256 152.4 20.9 .167  35
2019 06 14 17  16 24 35.098   -00 34 20.47  .44544 1.4252 152.3 20.9 .169  35
2019 06 14 18  16 24 26.970   -00 33 28.17  .44515 1.4248 152.3 20.9 .170  35
2019 06 14 19  16 24 18.834   -00 32 35.86  .44486 1.4244 152.2 20.9 .172  35
2019 06 14 20  16 24 10.690   -00 31 43.53  .44457 1.4240 152.1 20.9 .173  35
2019 06 14 21  16 24 02.537   -00 30 51.19  .44428 1.4236 152.1 20.9 .174  35
2019 06 14 22  16 23 54.377   -00 29 58.84  .44399 1.4231 152.0 20.9 .176  35
2019 06 14 23  16 23 46.209   -00 29 06.48  .44370 1.4227 152.0 20.9 .177  35
2019 06 15 00  16 23 38.033   -00 28 14.11  .44341 1.4223 151.9 20.9 .179  35
2019 06 15 01  16 23 29.849   -00 27 21.72  .44312 1.4219 151.9 20.9 .180  35
2019 06 15 02  16 23 21.657   -00 26 29.32  .44284 1.4215 151.8 20.9 .182  35
2019 06 15 03  16 23 13.457   -00 25 36.91  .44255 1.4211 151.7 20.9 .183  35
2019 06 15 04  16 23 05.249   -00 24 44.49  .44226 1.4206 151.7 20.9 .184  35
2019 06 15 05  16 22 57.033   -00 23 52.06  .44198 1.4202 151.6 20.9 .186  35
2019 06 15 06  16 22 48.809   -00 22 59.62  .44169 1.4198 151.6 20.9 .187  35
2019 06 15 07  16 22 40.578   -00 22 07.16  .44140 1.4194 151.5 20.9 .189  35
2019 06 15 08  16 22 32.338   -00 21 14.69  .44112 1.4190 151.5 20.9 .190  35
2019 06 15 09  16 22 24.090   -00 20 22.21  .44083 1.4185 151.4 20.9 .191  35
2019 06 15 10  16 22 15.835   -00 19 29.72  .44055 1.4181 151.3 20.9 .193  35
2019 06 15 11  16 22 07.571   -00 18 37.22  .44026 1.4177 151.3 20.9 .194  35
2019 06 15 12  16 21 59.300   -00 17 44.71  .43998 1.4173 151.2 20.9 .196  34
2019 06 15 13  16 21 51.021   -00 16 52.19  .43970 1.4169 151.2 20.9 .197  34
2019 06 15 14  16 21 42.734   -00 15 59.66  .43941 1.4165 151.1 20.9 .199  34
2019 06 15 15  16 21 34.439   -00 15 07.11  .43913 1.4160 151.0 20.9 .200  34
2019 06 15 16  16 21 26.136   -00 14 14.56  .43885 1.4156 151.0 20.9 .202  34
2019 06 15 17  16 21 17.826   -00 13 21.99  .43857 1.4152 150.9 20.9 .203  34
2019 06 15 18  16 21 09.507   -00 12 29.42  .43828 1.4148 150.9 20.9 .204  34
2019 06 15 19  16 21 01.181   -00 11 36.83  .43800 1.4144 150.8 20.9 .206  34
2019 06 15 20  16 20 52.847   -00 10 44.24  .43772 1.4139 150.7 20.8 .207  34
2019 06 15 21  16 20 44.505   -00 09 51.63  .43744 1.4135 150.7 20.8 .209  34
2019 06 15 22  16 20 36.155   -00 08 59.02  .43716 1.4131 150.6 20.8 .210  34
2019 06 15 23  16 20 27.798   -00 08 06.39  .43688 1.4127 150.6 20.8 .212  34
2019 06 16 00  16 20 19.432   -00 07 13.76  .43660 1.4123 150.5 20.8 .213  34
2019 06 16 01  16 20 11.059   -00 06 21.11  .43632 1.4119 150.5 20.8 .214  34
2019 06 16 02  16 20 02.678   -00 05 28.46  .43604 1.4114 150.4 20.8 .216  34